IONOSFERA-M 1

Last updated on Mon Sep 21 2026 00:02:46 GMT+0000 (Coordinated Universal Time)

1 61735U 24199A 26263.55523695 .00000021 00000+0 28938-4 0 9992 2 61735 98.7006 135.6520 0000712 147.0716 213.0507 14.22769012141268
UTC large
Height (km)
Speed (km/s)
/
Latitude / Longitude
Inclination (degrees)
Orbital Period (minutes)
Azimuth
Elevation
Range (km)
Doppler Factor

Next 0 passes for location: London (51.5072 / 0.1276)

No passes found over London.
IONOSFERA-M 1